Regional Weather Roundup
Issued by NWS Jackson, KY

Home | Current Version | Previous Version | Text Only | Print | Product List | Glossary Off
Versions: 1 2 3 4 5 6 7 8 9 10 11 12 13 14 15 16 17 18 19 20 21 22 23 24 25 26 27 28 29 30 31 32 33 34 35 36 37 38 39 40 41 42 43 44 45 46 47 48 49 50

211
ASUS43 KJKL 252210
RWRJKL

EAST KENTUCKY HOURLY WEATHER ROUNDUP
NATIONAL WEATHER SERVICE JACKSON KY
600 PM EDT SAT MAR 25 2017

NOTE: "FAIR" INDICATES FEW OR NO CLOUDS BELOW 12,000 FEET WITH
NO SIGNIFICANT WEATHER AND/OR OBSTRUCTIONS TO VISIBILITY.

* THESE REPORTS ARE NOT UNDER NWS QUALITY CONTROL AND MAY NOT
  REPORT WEATHER SUCH AS PRECIPITATION AND FOG.

KYZ079-080-083-085-087-088-110-112-115-119-120-252300
...EASTERN KENTUCKY...

CITY           SKY/WX    TMP DP  RH WIND       PRES   REMARKS
JACKSON        MOSUNNY   76  47  35 VRB6      30.07F
LONDON         CLOUDY    73  45  36 S10G18    30.07F
SOMERSET*      PTSUNNY   72  46  40 S7        30.06F
MONTICELLO*    CLOUDY    73  51  46 SE10G17   30.05F
WILLIAMSBURG*  CLOUDY    72  48  43 SE8       30.07F
MIDDLESBORO*   MOSUNNY   75  47  36 SW5       30.08F
HARLAN APT*    CLOUDY    73  41  31 S3        30.09F
PIKE CO APT*     N/A     75  46  35 S6        30.08F
BIG SANDY APT* MOCLDY    77  47  35 S7        30.06F
MOREHEAD APT*  CLOUDY    75  45  33 SE8       30.07F
ASHLAND*       CLOUDY    63  54  72 SE7       30.05F
$$

KYZ035-036-041-042-044-050-067-078-099-252300
...CENTRAL KENTUCKY...

CITY           SKY/WX    TMP DP  RH WIND       PRES   REMARKS
MT STERLING*   CLOUDY    75  50  41 S9        30.06F
FLEMING/MASON* CLOUDY    73  51  45 CALM      30.06F
DANVILLE*      PTSUNNY   72  50  46 S12       30.05S
LEXINGTON      MOSUNNY   74  47  38 S16G22    30.03F
FRANKFORT      MOSUNNY   77  47  34 S13       30.01S
LOUISVILLE     CLOUDY    76  48  37 S18       29.97F
LEBANON*         N/A     72  50  46 SE13      30.02F
GLASGOW*       CLOUDY    73  50  44 S12       29.98F
BOWLING GREEN  LGT RAIN  66  58  75 SW10G26   29.99R
$$

KYZ091>093-OHZ055-061-077-WVZ005-015-034-035-042-252300
...SOUTHERN OHIO/WEST VIRGINIA...

CITY           SKY/WX    TMP DP  RH WIND       PRES   REMARKS
COVINGTON      CLOUDY    74  51  44 S17       30.00F
COLUMBUS       CLOUDY    74  50  42 S10       30.07S
DAYTON         CLOUDY    71  50  47 SE15      30.03F
WILMINGTON     CLOUDY    70  52  52 S10       30.05F
HUNTINGTON     CLOUDY    74  47  38 E3        30.06F
CHARLESTON     CLOUDY    75  47  36 NE5       30.07F
PINEVILLE*     PTSUNNY   76  36  23 MISG      30.14F
BECKLEY        PTSUNNY   71  45  39 SE9       30.14F
BLUEFIELD      MOSUNNY   67  45  45 VRB7      30.17S
LOGAN CO APT*    N/A     75  45  33 CALM      30.09F
$$

VAZ002-007-008-TNZ017-027-036-066-071-252300
...SOUTHWEST VIRGINIA/EAST TENNESSEE...

CITY           SKY/WX    TMP DP  RH WIND       PRES   REMARKS
WISE*          CLOUDY    70  41  35 CALM      30.15F
JONESVILLE*      N/A     75  45  33 SW8       30.10F
ABINGDON*      SUNNY     75  45  34 W6        30.12F
BRISTOL        PTSUNNY   74  48  39 SW9       30.10F
MORRISTOWN*    CLEAR     73  46  38 S9        30.08F
SEVIERVILLE*   CLEAR     75  45  33 S8        30.06F
KNOXVILLE      PTSUNNY   74  46  36 S9        30.06F
LAFOLLETTE*    MOCLDY    73  48  40 VRB5      30.10F
OAK RIDGE      PTSUNNY   76  47  35 S7        30.07F
CROSSVILLE     CLOUDY    70  48  45 SE10G21   30.07F
NASHVILLE      CLOUDY    68  59  73 SE14      29.99F
$$

...KEY TO REMARKS...
VSB - VISIBILITY IN MILES
WCI - WIND CHILL INDEX
HX  - HEAT INDEX

$$




USA.gov is the U.S. government's official web portal to all federal, state and local government web resources and services.